Home   Weather   Cartagena   Past weeks

Flag for Colombia Past Weather in Cartagena, Colombia — Yesterday and Last 2 Weeks

Now
82 °F

Passing clouds.


Feels Like: 92 °F
Forecast: 83 / 91 °F
Wind: 8 mph from Northeast

Location: Cartagena / Rafael Nunez

Current Time: Apr 29, 2017 at 2:34:08 am

Latest Report: Apr 29, 2017 at 2:00 am


Visibility: N/A

Pressure: 29.77 "Hg

Humidity: 89%

Dew Point: 79 °F

Location of CartagenaLocation

Past Weather in Cartagena — Graph

°F

Cartagena Temperature Yesterday

Maximum temperature yesterday: 93 °F (at 1:00 pm)
Minimum temperature yesterday: 81 °F (at 2:00 am)
Average temperature yesterday: 86 °F

High & Low Weather Summary for the Past Weeks

 TemperatureHumidityPressure
High93 °F (Apr 28, 1:00 pm)100% (Apr 23, 7:00 am)29.93 "Hg (Apr 23, 7:00 am)
Low77 °F (Apr 21, 4:00 am)62% (Apr 19, 5:00 pm)26.73 "Hg (Apr 27, 5:00 pm)
Average84 °F83%29.79 "Hg
* Reported Apr 14 1:00 am — Apr 29 1:00 am, Cartagena, Weather by CustomWeather, © 2017

Note: Actual official high and low records may vary slightly from our data, if they occured in-between our weather recording intervals... More about our weather records

Advertising

Cartagena Weather History for the Previous 24 Hours

Scroll right to see more
 ConditionsComfort  
Time TempWeatherWind HumidityBarometerVisibility
1:00 am
Sat, Apr 29
82 °FPassing clouds.9 mph89%29.78 "HgN/A
12:00 am84 °FClear.8 mph84%29.80 "Hg10 mi
11:00 pm
Fri, Apr 28
82 °FPassing clouds.8 mph89%29.79 "HgN/A
10:00 pm84 °FPassing clouds.10 mph79%29.78 "HgN/A
9:00 pm84 °FPassing clouds.9 mph84%29.77 "HgN/A
8:00 pm84 °FPassing clouds.10 mph84%29.75 "HgN/A
7:00 pm84 °FPassing clouds.9 mph89%29.74 "HgN/A
6:00 pm86 °FScattered clouds.9 mph84%29.73 "HgN/A
5:00 pm88 °FPassing clouds.N/A75%29.72 "HgN/A
4:00 pm90 °FPassing clouds.20 mph75%29.71 "HgN/A
3:00 pm93 °FPassing clouds.13 mph71%29.73 "HgN/A
2:00 pm93 °FPassing clouds.13 mph71%29.73 "HgN/A
1:00 pm93 °FPassing clouds.12 mph71%29.76 "Hg5 mi
12:00 pm91 °FPassing clouds.9 mph71%29.78 "HgN/A
11:00 am91 °FPassing clouds.7 mph71%29.82 "HgN/A
10:00 am91 °FPassing clouds.2 mph71%29.82 "HgN/A
9:00 am90 °FClear.5 mph75%29.83 "Hg4 mi
8:00 am86 °FHaze.3 mph79%29.82 "Hg3 mi
7:00 am84 °FHaze.3 mph89%29.80 "Hg3 mi
6:00 am81 °FPartly sunny.No wind94%29.78 "Hg4 mi
5:00 am81 °FPassing clouds.5 mph94%29.78 "Hg5 mi
4:00 am81 °FPassing clouds.5 mph94%29.77 "HgN/A
3:00 am81 °FPassing clouds.5 mph89%29.76 "HgN/A
2:00 am81 °FPassing clouds.5 mph94%29.78 "HgN/A
Weather by CustomWeather, © 2017

See weather overviewHow to use our weather pages